Tracking 17155 objects as of 29-July-2015
HD Live streaming from Space Station

NAVSTAR 50 (USA 156)

Track NAVSTAR 50 (USA 156) now!
NAVSTAR 50 (USA 156) is classified as:


NORAD ID: 26690
Int'l Code: 2001-004A
Perigee: 19,748.4 km
Apogee: 20,629.3 km
Inclination: 53.0 °
Period: 718.0 minutes
Semi major axis: 26559 km
RCS: 2.5119 m2 (large)
Launch date: January 30, 2001
Source: United States (US)
PRN: 18

NAVSTAR 50 (USA 156) is an American GPS navigational spacecraft that was launched by a Delta 2 rocket from Vandenberg AFB at 07:55 UT. The two-ton satellite is the 28th member of the "second generation" fleet, four of which (including the latest) being replacements for the older models.
Your satellite tracking list
Your tracking list is empty





NASA's NSSDC Master Catalog

Two Line Element Set (TLE):
1 26690U 01004A   15210.40889984  .00000051  00000-0  00000+0 0  9992
2 26690 053.0051 186.6077 0165835 248.8139 357.4859 02.00569217106209

Source of the keplerian elements: AFSPC

N2YO: 320